{"data":{"norad_id":64735,"intl_designator":"2025-144M","name":"STARLINK-34587","alt_names":[],"object_type":"PAYLOAD","status":"ACTIVE","operator":null,"country":"US","launch_date":"2025-07-02","launch_site_code":"AFETR","launch_vehicle":null,"mission":null,"orbit_class":"UNKNOWN","rcs_meters":null,"size_class":null,"mass_kg":null,"dimensions":null,"purposes":["comms"],"wikipedia_slug":null,"has_3d_model":false,"image_url":null,"decayed_at":null,"tle_current":{"epoch":"2026-09-20T11:27:56.427552Z","epoch_age_seconds":129893,"freshness":"FRESH","line1":"1 64735U 25144M   26263.47773643  .00027670  00000+0  82699-3 0  9999","line2":"2 64735  53.1597 355.6506 0001050  94.7850 265.3272 15.34402229 69493","mean_motion":15.34402229,"eccentricity":0.000105,"inclination_deg":53.1597,"raan_deg":355.6506,"arg_perigee_deg":94.785,"mean_anomaly_deg":265.3272,"bstar":0.00082699,"rev_number":6949,"period_min":93.847621750294,"perigee_km":461.97832762779,"apogee_km":463.41490268698,"semimajor_km":6840.8336151574,"source":"CELESTRAK","updated_at":"2026-09-21T09:00:35.411095Z"}}}